"Pseudo-MPEC" for C2F39V2

Created 2020 Mar 28 5:07:06 UT using Find_Orb

Click here for an explanation of pseudo-MPECs

 
 Astrometry: 
     C2F39V2  C2020 03 25.37436 14 37 10.56 +10 52 28.0    ~3P9q       VNEOCPG96
     C2F39V2  C2020 03 25.37948 14 37 11.41 +10 51 46.2    ~3P9q 21.1 GVNEOCPG96
     C2F39V2  C2020 03 25.38460 14 37 12.30 +10 51 04.4    ~3P9q 21.0 GVNEOCPG96
     C2F39V2  C2020 03 25.38971 14 37 13.18 +10 50 22.2    ~3P9q       VNEOCPG96
     C2F39V2  C2020 03 25.48137 14 37 29.38 +10 37 42.5    ~3PBq 20.5 GVNEOCPI52
     C2F39V2  C2020 03 25.48388 14 37 29.80 +10 37 22.0    ~3PBq 21.0 GVNEOCPI52
     C2F39V2  C2020 03 25.48638 14 37 30.26 +10 37 01.1    ~3PBq 21.3 GVNEOCPI52
     C2F39V2  C2020 03 27.45402 14 48 06.26 +04 50 20.7    ~3RB7 20.5 GVNEOCPG96
     C2F39V2  C2020 03 27.45460 14 48 06.45 +04 50 12.4    ~3RB7 21.1 GVNEOCPG96
     C2F39V2  C2020 03 27.45518 14 48 06.60 +04 50 04.7    ~3RB7 20.7 GVNEOCPG96
     C2F39V2 KC2020 03 27.99416614 52 07.00 +02 40 04.0    ~3S1M 20.4 GVNEOCPJ95
     C2F39V2 KC2020 03 28.01404914 52 14.57 +02 34 58.3    ~3S1M 20.3 GVNEOCPJ95
     C2F39V2 KC2020 03 28.03227414 52 21.50 +02 30 16.5    ~3S1M 20.9 GVNEOCPJ95
     C2F39V2 IC2020 03 28R:eDMxrLQ=Astrometry*qaj_H\R'P5xZ't[4=DrI87O]d(UkYMuL01
     C2F39V2 KC2020 03 28+h?j6!vqReoredacted;flDGZaESd^Dnucv*TUW)`yH+6#[-UGWuL01
     C2F39V2 KC2020 03 28m!BNbB[%tUclickhp_vq%@p'here%,+aforn:.K6!2)hTdn4DCifL01
     C2F39V2 KC2020 03 289)csB:p$sW/Z%#BPmxV'x4FFIjexplanationilV]us0uJl@DI)XL01

Station data:
(G96) Mt. Lemmon Survey  (N32.442754 W110.788720)  US/Arizona.  Observers T.
   A. Pruyne, B. M. Africano, E. J. Christensen, G. A. Farneth, D. C. Fuls,
   A. R. Gibbs, A. D. Grauer, H. Gröller, J. A. Johnson, R. A. Kowalski, S.
   M. Larson, G. J. Leonard, D. Rankin, R. L. Seaman, F. C. Shelly. 1.5-m
   reflector + 10K CCD.
(I52) Steward Observatory, Mt. Lemmon Station  (N32.442547 W110.788920)
   US/Arizona.  Observers T. A. Pruyne, B. M. Africano, E. J. Christensen, G.
   A. Farneth, D. C. Fuls, A. R. Gibbs, A. D. Grauer, H. Gröller, J. A.
   Johnson, R. A. Kowalski, S. M. Larson, G. J. Leonard, D. Rankin, R. L.
   Seaman, F. C. Shelly. 1.0-m reflector + CCD.
(J95) Great Shefford  (N51.474969 W1.447003)  UK.  Observer P. Birtwhistle.
   0.40-m f/6.0 Schmidt-Cassegrain + CCD.
(L01) Višnjan Observatory, Tičan  (N45.290900 E13.749300)  Croatia.
   Observers K. Korlević, E. Pettarin. Measurer E. Pettarin. 1.0-m f/2.9
   reflector + CCD.

Orbital elements:  C2F39V2
   Perihelion 2020 Jun 10.042360 +/- 0.0306 TT =  1:00:59 (JD 2459010.542360)
Epoch 2020 Mar 28.0 TT = JDT 2458936.5   Earth MOID: 0.0079   AutoNEOCP
M 293.29791081 +/- 0.048            (J2000 ecliptic)
n   0.90086389 +/- 0.00029          Peri.  261.53017 +/- 0.015
a   1.06176872 +/- 0.000228         Node    11.28992 +/- 0.0010
e   0.1593266 +/- 0.000355          Incl.    8.77531 +/- 0.016
P   1.09/399.61d           H 27.2   G  0.15   U  7.3  
q 0.89260068 +/- 0.000191    Q 1.23093676 +/- 0.000638
From 17 observations 2020 Mar. 25-28; mean residual 0".34
Residuals in arcseconds: 
200325 G96  .46+  .72+    200325 I52  .23-  .21+    200328 J95  .51+  .20-    
200325 G96  .13-  .36+    200327 G96  .22-  .33+    200328 L01  .43-  .28+    
200325 G96  .10-  .09+    200327 G96  .12+  .22-    200328 L01  .55-  .52+    
200325 G96  .18-  .57-    200327 G96  .13-  .17-    200328 L01  .06+  .09+    
200325 I52  .46+  .69-    200327 J95  .13-  .10+    200328 L01  .51+  .30+    
200325 I52  .18-  .01-    200328 J95  .30-  .05-    

Ephemerides (geocentric):
Date (UTC) HH   RA              Dec         delta   r     elong  mag " sig PA
---- -- -- --  -------------   -----------  ------ ------ -----  --- ---- ---
2020 03 28 05  14 53 36.540   +01 47 58.51  .02573 1.0190 143.4 20.7 .614 158
2020 03 28 06  14 53 56.346   +01 36 38.42  .02559 1.0189 143.3 20.7 .647 158
2020 03 28 07  14 54 16.364   +01 25 10.53  .02544 1.0187 143.3 20.7 .681 158
2020 03 28 08  14 54 36.598   +01 13 34.73  .02530 1.0186 143.3 20.7 .716 157
2020 03 28 09  14 54 57.052   +01 01 50.92  .02515 1.0185 143.3 20.7 .753 157
2020 03 28 10  14 55 17.729   +00 49 58.97  .02501 1.0184 143.2 20.7 .791 157
2020 03 28 11  14 55 38.634   +00 37 58.76  .02486 1.0183 143.2 20.7 .831 157
2020 03 28 12  14 55 59.769   +00 25 50.18  .02472 1.0182 143.2 20.7 .872 156
2020 03 28 13  14 56 21.139   +00 13 33.10  .02458 1.0181 143.2 20.6 .914 156
2020 03 28 14  14 56 42.748   +00 01 07.40  .02444 1.0180 143.1 20.6 .959 156
2020 03 28 15  14 57 04.600   -00 11 27.04  .02429 1.0179 143.1 20.6 1.00 156
2020 03 28 16  14 57 26.699   -00 24 10.35  .02415 1.0177 143.1 20.6 1.05 156
2020 03 28 17  14 57 49.050   -00 37 02.66  .02401 1.0176 143.0 20.6 1.10 155
2020 03 28 18  14 58 11.657   -00 50 04.09  .02387 1.0175 143.0 20.6 1.15 155
2020 03 28 19  14 58 34.524   -01 03 14.79  .02373 1.0174 142.9 20.6 1.20 155
2020 03 28 20  14 58 57.656   -01 16 34.88  .02359 1.0173 142.9 20.6 1.26 155
2020 03 28 21  14 59 21.058   -01 30 04.50  .02345 1.0172 142.8 20.5 1.32 155
2020 03 28 22  14 59 44.735   -01 43 43.79  .02331 1.0171 142.8 20.5 1.37 155
2020 03 28 23  15 00 08.691   -01 57 32.88  .02317 1.0170 142.7 20.5 1.43 155
2020 03 29 00  15 00 32.932   -02 11 31.91  .02304 1.0168 142.7 20.5 1.50 155
2020 03 29 01  15 00 57.463   -02 25 41.03  .02290 1.0167 142.6 20.5 1.56 155
2020 03 29 02  15 01 22.288   -02 40 00.38  .02276 1.0166 142.6 20.5 1.63 155
2020 03 29 03  15 01 47.414   -02 54 30.10  .02262 1.0165 142.5 20.5 1.70 154
2020 03 29 04  15 02 12.846   -03 09 10.35  .02249 1.0164 142.5 20.5 1.77 154
2020 03 29 05  15 02 38.590   -03 24 01.27  .02235 1.0163 142.4 20.5 1.84 154
2020 03 29 06  15 03 04.651   -03 39 03.01  .02222 1.0162 142.3 20.4 1.91 154
2020 03 29 07  15 03 31.035   -03 54 15.72  .02208 1.0161 142.3 20.4 1.99 154
2020 03 29 08  15 03 57.749   -04 09 39.56  .02195 1.0160 142.2 20.4 2.07 154
2020 03 29 09  15 04 24.798   -04 25 14.67  .02182 1.0158 142.1 20.4 2.16 154
2020 03 29 10  15 04 52.190   -04 41 01.22  .02168 1.0157 142.0 20.4 2.24 154
2020 03 29 11  15 05 19.930   -04 56 59.37  .02155 1.0156 142.0 20.4 2.33 154
2020 03 29 12  15 05 48.026   -05 13 09.27  .02142 1.0155 141.9 20.4 2.42 154
2020 03 29 13  15 06 16.483   -05 29 31.07  .02129 1.0154 141.8 20.4 2.51 154
2020 03 29 14  15 06 45.310   -05 46 04.95  .02116 1.0153 141.7 20.4 2.61 154
2020 03 29 15  15 07 14.513   -06 02 51.07  .02103 1.0152 141.6 20.3 2.71 154
2020 03 29 16  15 07 44.100   -06 19 49.58  .02090 1.0151 141.5 20.3 2.81 154
2020 03 29 17  15 08 14.078   -06 37 00.66  .02077 1.0150 141.4 20.3 2.92 154
2020 03 29 18  15 08 44.456   -06 54 24.46  .02064 1.0148 141.3 20.3 3.03 154
2020 03 29 19  15 09 15.240   -07 12 01.15  .02051 1.0147 141.2 20.3 3.14 154
2020 03 29 20  15 09 46.440   -07 29 50.90  .02039 1.0146 141.1 20.3 3.25 154
2020 03 29 21  15 10 18.063   -07 47 53.87  .02026 1.0145 141.0 20.3 3.37 154
2020 03 29 22  15 10 50.119   -08 06 10.23  .02013 1.0144 140.9 20.3 3.49 154
2020 03 29 23  15 11 22.615   -08 24 40.16  .02001 1.0143 140.8 20.3 3.62 154
2020 03 30 00  15 11 55.562   -08 43 23.80  .01988 1.0142 140.7 20.2 3.75 154
2020 03 30 01  15 12 28.967   -09 02 21.34  .01976 1.0141 140.5 20.2 3.88 154
2020 03 30 02  15 13 02.842   -09 21 32.94  .01964 1.0139 140.4 20.2 4.01 154
2020 03 30 03  15 13 37.195   -09 40 58.76  .01952 1.0138 140.3 20.2 4.15 154
2020 03 30 04  15 14 12.037   -10 00 38.98  .01940 1.0137 140.2 20.2 4.30 154